Regional Weather Roundup
Issued by NWS

Home | Current Version | Previous Version | Text Only | Print | Product List | Glossary Off
Versions: 1 2 3 4 5 6 7 8 9 10 11 12 13 14 15 16 17 18 19 20 21 22 23 24 25 26 27 28 29 30 31 32 33 34 35 36 37 38 39 40 41 42 43 44 45 46 47 48 49 50

000
ASUS45 KABQ 231810
RWRNM
WEATHER ROUNDUP FOR NEW MEXICO
NATIONAL WEATHER SERVICE ALBUQUERQUE NM
1100 AM MST SUN NOV 23 2014

NOTE: "FAIR" MEANS FEW OR NO CLOUDS BELOW 12,000 FEET AGL WITH NO
       SIGNIFICANT WEATHER OR OBSTRUCTIONS TO VISION.

      THIS PRODUCT IS RELEASED AS TWO VERSIONS.  ONE VERSION NEAR
      THE TOP OF THE HOUR CONTAINING PRELIMINARY DATA FROM ALBUQUERQUE
      AND OTHER STATIONS.  A FINAL VERSION WITH ADDITIONAL DATA IS
      ISSUED ABOUT 10 MINUTES AFTER THE HOUR.

NMZ501-503-504-510>518-231900-
NORTHWEST PLATEAU/NORTHCENTRAL MOUNTAINS

CITY           SKY/WX    TMP DP  RH WIND       PRES   REMARKS
FARMINGTON     SUNNY     40  14  34 NW25G37   29.93F WCI  29
6HR MIN TEMP:  32; 6HR MAX TEMP:  40; 6HR PCP: TRACE;

LOS ALAMOS     MOSUNNY   38  15  39 W26G40    29.78F WCI  27
SANTA FE       PTSUNNY   44  16  32 W21G35    29.79F
6HR MIN TEMP:  34; 6HR MAX TEMP:  45;

TAOS           CLOUDY    34  25  69 N12       29.79S WCI  25
ANGEL FIRE     SNOW      26  23  87 N18       29.77S VSB 1/2 WCI  13

$$
NMZ402-403-502-505>509-231900-
WESTCENTRAL MOUNTAINS/SOUTHWEST MOUNTAINS

CITY           SKY/WX    TMP DP  RH WIND       PRES   REMARKS
GALLUP         SUNNY     39   9  29 NW26G35   30.01R WCI  28
6HR MIN TEMP:  33; 6HR MAX TEMP:  39; 6HR PCP: TRACE;

GRANTS         MOSUNNY   39  19  45 NW30G40   29.95S WCI  27
SILVER CITY    SUNNY     54  25  32 NW21G32   29.99S

$$
NMZ407-409-411-412-231900-
SOUTHERN DESERTS

CITY           SKY/WX    TMP DP  RH WIND       PRES   REMARKS
LORDSBURG      FAIR      55  27  33 W21G31    30.00F
DEMING         SUNNY     59  28  30 W39G47    29.93F HAZE
6HR MIN TEMP:  47; 6HR MAX TEMP:  59;

LAS CRUCES     SUNNY     60  24  25 W31G39    29.92F
HOLLOMAN AFB   MOSUNNY   61  24  24 NW12      29.86F
ALAMOGORDO     MOSUNNY   61  23  23 NW12G18   29.87F
T OR C         SUNNY     58  21  24 NW26G38   29.88F
6HR MIN TEMP:  39; 6HR MAX TEMP:  58;


$$
NMZ519>523-231900-
CENTRAL VALLEYS/CENTRAL HIGHLANDS

CITY           SKY/WX    TMP DP  RH WIND       PRES   REMARKS
ALBUQUERQUE    PTSUNNY   46  21  37 NW29G39   29.89F
6HR MIN TEMP:  42; 6HR MAX TEMP:  47;

DOUBLE EAGLE   PTSUNNY   45  21  39 W33G40    29.89F
MORIARTY ARPT  CLOUDY    42  23  46 W22G29    29.85F
6HR MIN TEMP:  35; 6HR MAX TEMP:  44;

CLINES CORNERS MOSUNNY   39  22  50 W35G52    29.78F WCI  26
6HR MIN TEMP:  27; 6HR MAX TEMP:  40;

BELEN          FAIR      49  22  34 NW23G30   29.89F
6HR MIN TEMP:  41; 6HR MAX TEMP:  50;

SOCORRO        FAIR      54  25  32 NW21G33   29.88F
6HR MIN TEMP:  45; 6HR MAX TEMP:  54;


$$
NMZ524>526-539-540-231900-
SOUTHCENTRAL MOUNTAINS

CITY           SKY/WX    TMP DP  RH WIND       PRES   REMARKS
RUIDOSO        CLOUDY    45  23  42 NW24G37   29.86R

$$
NMZ527>531-231900-
NORTHEAST HIGHLANDS/NORTHEAST PLAINS

CITY           SKY/WX    TMP DP  RH WIND       PRES   REMARKS
LAS VEGAS      MOSUNNY   47  15  27 NW15G26   29.73R
6HR MIN TEMP:  37; 6HR MAX TEMP:  47;

RATON          CLOUDY    34  24  67 N20       29.76R WCI  23
6HR MIN TEMP:  34; 6HR MAX TEMP:  45;

CLAYTON        LGT SNOW  34  31  88 N23       29.74S FOG     WCI  22
6HR MIN TEMP:  34; 6HR MAX TEMP:  47; 6HR PCP:  0.01;


$$
NMZ532>537-231900-
EASTCENTRAL PLAINS

CITY           SKY/WX    TMP DP  RH WIND       PRES   REMARKS
TUCUMCARI      LGT RAIN  48  28  46 NE25G39   29.72R
6HR MIN TEMP:  46; 6HR MAX TEMP:  55; 6HR PCP: TRACE;

CANNON AFB     MOSUNNY   58  23  26 NW20G30   29.67S
6HR MIN TEMP:  45; 6HR MAX TEMP:  58;

CLOVIS AIRPORT PTSUNNY   57  25  28 N23G29    29.68S

$$
NMZ028-029-538-231900-
SOUTHEAST PLAINS

CITY           SKY/WX    TMP DP  RH WIND       PRES   REMARKS
ROSWELL        SUNNY     65  23  20 W36G48    29.69S
6HR MIN TEMP:  32; 6HR MAX TEMP:  65; 6HR PCP: TRACE;

CARLSBAD       SUNNY     68  22  17 W37G45    29.69F
6HR MIN TEMP:  57; 6HR MAX TEMP:  68;

HOBBS          SUNNY     64  25  22 W25G33    29.73F


$$



USA.gov is the U.S. government's official web portal to all federal, state and local government web resources and services.